Theta_e
313 312 314 317 316 316 316 317 315 313 311 312 312 310 311 316 320 318 317 317 318 317 318 320 320 319 319 316 317 312 314 317 317 316 318 317 317 316 315 316 313 310 309 310 313
312 311 313 316 315 315 316 318 315 313 311 313 312 312 317 322 319 318 317 317 317 316 319 321 318 318 316 318 317 315 317 320 318 318 319 318 317 316 316 313 310 308 308 309 309
309 309 312 315 316 316 316 317 316 314 312 310 312 316 319 322 319 318 318 316 315 316 320 323 321 317 318 319 319 317 318 318 319 319 318 318 314 311 313 309 307 307 307 308 308
310 309 313 315 317 317 317 317 317 314 315 315 317 317 320 323 316 318 317 317 318 321 320 320 316 317 318 319 319 320 318 319 319 316 318 317 311 309 309 307 308 307 306 306 306
310 311 316 317 318 317 317 318 317 314 315 319 318 319 323 315 317 317 317 317 317 318 318 317 317 317 318 317 316 318 318 317 316 315 314 311 310 308 308 307 306 305 305 304 304
309 315 317 318 318 317 317 317 316 313 313 316 318 320 318 316 318 316 318 317 317 318 319 317 317 317 317 317 318 316 317 316 316 313 312 311 310 309 307 305 304 304 304 303 303
310 315 317 319 318 317 316 316 315 314 315 318 318 317 314 316 317 316 317 318 318 318 317 318 317 316 317 317 316 317 317 315 315 314 312 310 310 308 306 304 303 302 302 303 302
313 316 318 318 318 316 318 316 315 316 317 317 319 317 315 317 317 316 313 318 318 317 317 317 315 316 317 316 314 315 313 318 316 317 315 313 310 307 304 303 302 301 300 302 302
314 317 319 319 318 319 320 319 320 320 320 321 322 315 315 317 317 315 313 314 316 318 318 317 316 314 312 314 313 312 316 318 318 315 315 312 309 307 304 303 302 300 300 302 301
314 317 319 320 318 318 319 320 319 321 322 320 318 314 315 316 317 314 314 314 316 315 315 315 311 312 311 312 315 316 317 317 318 312 309 309 308 305 303 302 301 300 299 300 300
313 318 319 319 320 321 321 323 315 314 316 316 316 316 316 317 316 314 313 315 314 312 314 313 312 314 313 312 315 315 316 314 315 312 312 309 307 305 303 301 300 299 299 299 298
311 317 319 319 321 323 323 319 316 316 316 315 315 316 317 317 313 312 313 313 313 314 314 313 313 312 312 311 310 311 313 312 310 311 310 308 306 304 303 301 300 298 297 296 296
311 315 319 319 320 319 320 320 320 319 315 317 314 315 315 317 313 311 311 312 312 313 311 312 313 312 311 311 311 310 312 311 311 310 308 308 308 305 303 298 297 296 295 296 296
311 314 320 320 321 320 319 319 320 320 313 316 316 314 315 316 312 312 312 312 311 314 315 311 310 312 311 312 311 312 311 311 311 311 310 310 310 307 303 297 296 294 293 294 296
312 313 319 320 324 323 319 319 321 318 314 316 315 315 313 311 312 312 312 311 312 313 311 312 311 311 311 311 310 311 309 308 309 309 311 310 309 306 304 297 295 294 295 296 296
310 313 317 318 321 322 318 320 319 310 316 316 314 314 312 311 311 312 310 309 310 311 310 311 310 310 311 310 309 307 308 308 307 307 311 310 308 307 299 296 296 296 295 296 296
309 313 316 317 316 320 319 316 313 315 315 316 313 313 313 311 312 312 311 310 310 311 310 310 311 310 309 309 307 306 306 306 306 306 309 305 307 302 296 296 297 297 295 295 296
312 314 314 317 320 322 320 312 315 317 316 315 313 315 314 311 311 311 311 311 309 309 309 312 312 310 309 309 309 308 306 305 306 305 303 306 307 296 295 296 297 296 296 296 296
315 316 313 315 321 322 312 320 318 317 314 314 315 314 313 313 313 311 310 311 310 307 311 310 312 309 310 308 307 307 307 306 307 305 304 307 303 295 296 297 296 296 296 295 295
318 317 314 314 317 318 314 318 316 314 314 314 316 313 314 313 313 311 311 308 309 308 307 309 310 309 309 309 308 308 306 306 303 305 304 302 304 300 295 295 295 295 295 294 295
317 314 315 315 319 313 317 317 314 314 313 314 314 314 314 314 312 312 311 309 307 308 306 305 307 309 306 307 307 304 305 304 301 302 305 303 299 296 295 295 295 295 294 295 294
316 314 317 317 317 312 317 316 315 314 312 313 313 313 314 312 312 313 313 310 305 306 307 302 303 305 307 305 305 304 303 300 301 300 300 299 298 295 295 295 296 295 294 294 292
314 313 320 318 315 315 315 314 313 315 312 314 314 313 312 312 314 312 311 306 304 303 301 301 301 302 301 301 299 299 297 298 296 295 296 297 296 293 294 294 295 295 293 291 291
314 316 314 311 310 314 315 316 314 311 312 311 312 312 312 312 310 311 312 307 304 303 304 301 300 302 300 300 298 298 297 298 296 295 295 295 293 292 294 294 295 295 291 290 290
313 317 313 317 316 314 315 316 315 314 311 310 312 311 312 312 311 310 308 304 302 302 301 297 298 298 298 298 298 298 297 296 295 294 295 294 292 293 294 293 294 292 291 290 289
313 315 309 311 314 314 314 316 314 310 311 311 312 309 308 309 307 307 305 303 301 300 299 296 297 297 298 298 296 297 296 295 294 294 293 293 294 294 293 293 294 290 290 289 288
312 313 312 310 313 316 314 314 313 308 307 305 308 307 306 302 300 299 298 297 299 300 298 297 297 296 296 295 297 297 295 294 294 293 294 295 294 293 295 295 294 290 289 288 287
Wind_Speed
10 10 9 8 9 8 7 7 8 8 9 11 12 13 14 13 10 6 3 2 2 2 2 4 4 6 4 4 2 3 4 2 5 3 3 5 8 8 1 7 13 9 10 10 28
11 9 7 8 9 6 4 6 8 9 10 12 14 15 13 10 9 8 8 4 2 0 1 2 3 2 3 2 2 4 3 3 1 1 1 1 5 5 8 10 8 7 16 26 39
10 8 7 9 11 6 2 7 9 10 10 11 13 11 6 2 3 5 10 5 2 3 2 3 5 2 1 1 1 3 4 4 3 3 2 2 10 8 9 10 6 5 10 21 33
11 9 7 9 8 3 5 9 10 11 10 10 8 6 3 3 3 6 7 7 6 2 4 5 3 2 2 3 2 2 5 2 2 4 1 5 6 11 17 6 6 9 12 25 22
10 9 8 9 6 4 9 11 12 11 10 9 7 4 2 6 1 7 5 5 4 4 3 2 3 2 1 3 4 3 2 1 3 3 8 14 10 14 13 9 11 20 24 20 22
10 9 10 8 7 10 13 13 13 12 12 9 6 6 4 9 5 7 5 6 3 5 6 3 1 3 2 2 1 3 3 4 2 7 5 10 4 6 8 6 17 20 18 17 22
9 10 9 10 11 15 15 15 14 14 13 10 8 10 8 3 6 8 5 4 4 5 2 2 2 3 1 5 2 3 5 6 6 5 7 10 10 9 6 11 16 13 13 15 19
8 10 10 11 14 16 16 16 14 13 10 8 8 8 5 3 9 10 19 2 4 4 3 3 3 0 2 3 6 5 5 5 5 4 3 6 5 7 4 17 12 10 8 11 13
7 9 10 12 13 14 14 14 12 9 7 5 4 4 3 5 9 14 17 5 7 3 2 3 4 4 8 4 5 8 2 4 7 7 3 6 7 4 4 15 11 8 8 9 11
7 9 11 12 12 13 13 17 15 8 4 6 6 5 7 5 7 20 15 8 4 7 5 6 6 5 5 7 1 3 2 4 3 6 10 13 10 8 7 14 8 8 8 10 15
8 8 11 13 13 9 5 2 5 6 13 6 1 5 4 7 7 19 16 4 5 8 5 5 8 4 5 3 1 3 2 3 2 3 2 8 12 7 5 10 10 9 11 14 14
7 9 11 13 7 5 4 6 3 5 6 7 5 3 4 3 6 18 18 6 7 4 3 7 5 6 2 5 6 5 3 4 6 6 7 10 9 7 6 7 10 12 12 11 13
7 7 9 11 4 4 9 11 7 4 6 5 4 4 5 5 4 10 8 3 5 7 8 7 4 5 5 6 8 4 3 2 6 4 7 14 5 5 6 12 14 13 8 13 14
7 5 7 9 4 6 5 7 2 2 5 10 7 6 8 1 6 7 13 2 7 3 2 6 5 4 5 3 3 3 4 5 4 1 3 3 2 2 5 11 12 9 9 9 13
6 4 5 8 10 5 6 4 1 2 5 7 6 6 7 7 3 10 14 5 4 4 5 1 5 6 6 6 3 6 12 7 2 5 2 4 5 2 2 9 8 8 9 12 14
3 3 6 6 4 7 8 2 2 5 3 3 4 6 5 7 7 5 9 11 3 5 7 3 2 3 3 4 2 9 6 4 3 3 2 0 5 2 3 2 4 5 7 11 13
3 7 5 4 4 8 6 2 5 6 4 5 3 4 2 6 6 6 5 13 6 6 7 5 3 5 3 5 6 10 7 4 5 5 4 3 6 3 3 1 2 5 7 9 11
5 7 11 7 7 7 3 5 8 1 1 1 2 2 5 7 5 7 4 6 6 6 4 5 6 7 7 1 3 4 3 4 4 4 5 5 4 4 4 2 3 5 5 12 15
6 4 4 5 5 3 5 6 4 2 1 1 2 5 5 5 3 6 5 4 4 6 4 5 4 5 1 3 2 6 6 1 2 1 1 3 5 0 2 2 6 8 12 11 13
4 2 4 3 3 3 5 5 3 1 2 1 3 2 2 6 4 5 3 4 5 4 1 1 3 2 5 3 4 4 1 4 4 5 5 3 1 3 6 8 8 9 12 9 11
2 3 5 3 3 5 4 3 3 1 1 3 2 3 3 3 2 3 2 1 4 7 4 2 1 4 1 5 3 5 3 4 2 3 3 4 1 3 4 5 7 8 11 10 10
3 3 5 2 4 2 3 5 3 1 5 4 4 3 2 2 3 3 3 1 4 2 3 1 2 4 3 5 3 2 3 3 3 6 3 2 2 7 1 3 5 6 9 8 7
3 2 3 1 4 2 2 4 4 2 4 3 2 2 1 3 3 3 3 1 5 4 1 3 1 4 5 4 5 5 3 2 1 2 3 2 3 3 4 6 10 12 7 5 10
3 3 4 4 2 7 5 3 3 3 3 4 3 1 2 2 4 5 3 2 2 1 0 1 1 4 5 1 1 5 6 3 2 1 4 3 8 10 11 11 15 16 7 9 12
3 2 2 2 2 5 4 5 4 3 2 3 3 2 3 3 2 2 3 0 1 2 3 3 2 3 5 4 2 3 3 4 4 2 1 6 6 6 8 8 9 5 7 10 13
4 4 3 3 2 6 4 3 4 3 2 1 5 1 1 4 1 6 3 2 2 3 2 3 1 5 5 3 5 4 3 4 4 2 4 6 7 4 7 6 12 3 8 12 13
4 3 5 3 3 4 2 3 5 8 2 4 5 4 3 3 4 4 4 4 3 3 1 2 2 2 4 5 1 2 1 3 2 4 3 3 6 5 12 13 14 8 12 13 13
Wind_Direction
33 32 32 29 26 33 46 82 106 98 100 119 128 125 121 117 100 68 48 339 322 326 301 331 319 315 333 347 13 84 58 39 350 37 319 320 22 340 310 65 46 35 43 356 33
24 21 28 25 15 18 51 95 116 113 105 118 125 125 126 118 102 61 2 338 333 318 110 22 313 347 355 326 13 86 95 213 255 207 147 22 47 327 43 33 38 29 24 32 42
14 9 25 23 1 5 92 118 124 125 118 122 124 129 132 134 88 342 12 23 72 154 169 298 297 205 7 133 217 146 169 207 306 190 198 49 49 359 110 40 5 57 36 37 43
12 11 25 8 2 45 130 127 132 139 140 125 126 123 72 100 69 330 11 39 53 63 347 340 21 45 24 333 251 148 245 202 307 345 53 82 89 58 72 91 64 62 62 50 44
13 21 26 8 34 79 128 128 134 137 139 130 129 110 60 49 72 358 21 13 20 351 323 311 54 72 240 282 333 181 307 286 290 67 73 78 80 95 70 73 71 64 55 52 49
19 36 20 51 62 109 120 121 126 126 130 126 106 95 85 73 330 348 1 23 33 4 14 57 61 250 273 294 69 322 261 288 345 67 63 95 91 78 53 74 63 57 55 52 50
32 40 58 66 97 111 110 113 116 119 119 112 98 94 71 92 5 14 353 333 21 17 9 22 3 60 348 336 353 283 347 12 26 151 165 115 37 73 84 76 65 56 56 55 48
44 43 84 87 108 110 104 105 112 115 113 95 92 81 84 52 30 22 13 353 323 313 331 351 352 47 19 312 19 28 50 40 342 2 71 97 105 64 45 82 65 57 49 51 41
54 55 93 107 115 117 110 105 105 107 100 87 75 81 10 350 13 15 358 312 327 315 316 344 39 63 11 39 25 14 38 8 345 18 336 68 129 110 83 84 69 53 44 45 38
54 68 101 111 118 119 114 101 90 69 70 71 56 48 359 306 329 351 12 30 12 338 35 40 47 57 21 35 33 308 341 305 259 339 54 84 87 62 38 74 62 46 36 34 35
64 80 117 120 113 101 108 343 31 12 34 106 170 120 299 347 32 359 360 68 38 59 40 20 61 20 334 307 257 242 268 279 308 15 60 98 86 67 26 56 50 38 31 33 23
68 87 132 137 97 62 54 87 132 152 75 40 62 38 2 19 22 355 6 63 52 30 16 33 37 324 110 32 40 19 358 343 298 8 64 92 77 64 48 51 52 53 39 25 18
65 97 146 155 126 34 107 120 110 135 89 9 35 22 321 31 19 339 23 6 68 48 41 98 324 357 55 22 18 337 129 263 239 334 79 120 98 104 63 64 53 42 32 28 11
62 103 142 166 150 114 114 131 87 103 77 335 348 355 348 40 34 13 5 70 32 67 99 74 340 45 35 45 56 323 215 267 255 354 209 193 193 117 91 67 48 22 17 3 2
50 104 138 186 144 153 153 148 20 101 61 316 336 324 354 81 294 344 14 36 64 331 66 286 13 22 12 331 322 271 302 285 177 168 60 349 82 320 28 41 14 2 14 10 2
53 76 136 120 124 143 161 170 62 45 59 349 2 3 22 15 9 1 14 32 45 63 33 38 31 59 308 324 353 299 339 45 75 119 41 157 126 291 40 32 337 347 3 360 354
112 64 128 135 130 143 151 63 42 74 320 352 354 10 75 353 26 35 33 37 31 16 12 341 3 340 24 4 348 17 20 359 2 6 231 72 52 84 125 69 32 4 353 344 349
133 87 71 97 133 138 117 59 73 172 46 201 5 19 60 17 25 23 58 29 16 31 59 34 345 1 339 61 276 345 57 98 315 285 280 357 140 166 173 134 16 30 352 357 354
152 94 64 55 135 147 74 56 156 204 300 40 60 68 359 2 72 81 63 29 17 16 81 10 291 321 357 333 32 329 38 212 233 332 20 138 96 318 182 31 20 10 357 353 349
171 115 51 45 119 88 73 124 131 22 358 110 103 31 72 353 45 62 35 326 327 15 224 332 301 267 309 355 11 85 289 5 8 315 300 331 96 304 359 359 354 343 346 344 346
167 64 13 58 92 54 100 124 125 317 184 76 120 79 74 40 52 59 353 343 336 319 20 15 96 283 46 25 309 348 26 45 175 142 259 307 343 66 29 352 322 329 344 351 346
108 72 2 33 53 45 84 126 137 124 19 66 91 84 97 63 63 100 142 203 340 312 338 46 134 280 228 301 345 46 92 92 88 296 251 201 257 111 108 291 310 323 353 344 348
104 161 20 355 117 77 98 66 66 70 29 70 92 50 166 117 109 119 161 208 24 47 29 337 6 331 6 4 4 40 36 161 133 58 237 267 301 169 311 309 347 347 4 333 341
98 83 341 49 80 122 130 121 106 34 66 68 117 77 98 93 24 149 146 194 79 77 325 37 154 186 219 238 26 307 326 325 120 103 311 275 304 333 341 341 339 339 358 345 348
38 189 202 134 4 109 109 129 129 119 62 48 61 87 156 137 87 115 128 132 46 32 28 83 245 315 276 306 278 285 3 34 86 358 133 282 289 295 318 304 305 344 337 343 349
133 135 33 74 87 89 24 131 135 124 62 96 135 140 51 135 201 191 138 117 112 61 68 3 286 23 300 63 9 89 35 81 91 358 279 314 296 269 282 289 324 350 347 351 350
132 104 101 325 70 94 172 137 156 127 22 59 142 104 71 142 121 104 89 100 119 126 84 77 79 72 271 347 124 35 46 57 298 262 259 305 273 297 321 326 327 349 350 349 341